timestamp,surface_pressure_avg,surface_temp_avg,battery_voltage,lat,long
2019-10-23 00:00:00+00:00,218.8731,10.1,12.89,47.84626,-54.09684
2019-10-23 00:10:00+00:00,218.3148,10.1,12.81,47.84626,-54.09684
2019-10-23 00:20:00+00:00,221.7682,10.1,12.97,47.84626,-54.09684
2019-10-23 00:30:00+00:00,219.0797,10.1,12.97,47.84626,-54.09684
2019-10-23 00:40:00+00:00,212.5647,10.08,12.97,47.84626,-54.09684
2019-10-23 00:50:00+00:00,211.0714,10.02,12.97,47.84626,-54.09684
2019-10-23 01:00:00+00:00,209.9565,10.0,12.89,47.84626,-54.09684
2019-10-23 01:10:00+00:00,206.5731,10.0,12.81,47.84626,-54.09684
2019-10-23 01:20:00+00:00,205.1897,9.97,12.89,47.84626,-54.09684
2019-10-23 01:30:00+00:00,208.0765,9.96,12.97,47.84626,-54.09684
2019-10-23 01:40:00+00:00,208.7515,9.96,12.97,47.84626,-54.09684
2019-10-23 01:50:00+00:00,209.2331,9.95,12.97,47.84626,-54.09684
2019-10-23 02:00:00+00:00,211.1664,9.93,12.89,47.84626,-54.09684
2019-10-23 02:10:00+00:00,215.1331,9.91,12.81,47.84626,-54.09684
2019-10-23 02:20:00+00:00,219.7181,9.92,12.89,47.84626,-54.09684
2019-10-23 02:30:00+00:00,223.0764,9.94,12.89,47.84626,-54.09684
2019-10-23 02:40:00+00:00,227.2998,9.9,12.97,47.84626,-54.09684
2019-10-23 02:50:00+00:00,233.2331,9.9,12.97,47.84626,-54.09684
2019-10-23 03:00:00+00:00,236.3097,9.9,12.89,47.84626,-54.09684
2019-10-23 03:10:00+00:00,239.0114,9.9,12.81,47.84626,-54.09684
2019-10-23 03:20:00+00:00,245.7064,9.89,12.89,47.84626,-54.09684
2019-10-23 03:30:00+00:00,252.1714,9.88,12.89,47.84626,-54.09684
2019-10-23 03:40:00+00:00,255.8047,9.89,12.97,47.84626,-54.09684
2019-10-23 03:50:00+00:00,262.2498,9.9,12.97,47.84626,-54.09684
2019-10-23 04:00:00+00:00,270.1214,9.9,12.89,47.84626,-54.09684
2019-10-23 04:10:00+00:00,272.4415,9.9,12.81,47.84626,-54.09684
2019-10-23 04:20:00+00:00,272.7198,9.9,12.89,47.84626,-54.09684
2019-10-23 04:30:00+00:00,278.2264,9.9,12.89,47.84626,-54.09684
2019-10-23 04:40:00+00:00,286.0564,10.0,12.89,47.84626,-54.09684
2019-10-23 04:50:00+00:00,288.9915,10.0,12.97,47.84626,-54.09684
2019-10-23 05:00:00+00:00,288.8681,9.9,12.81,47.84626,-54.09684
2019-10-23 05:10:00+00:00,289.4065,9.9,12.81,47.84626,-54.09684
2019-10-23 05:20:00+00:00,294.9147,9.9,12.89,47.84626,-54.09684
2019-10-23 05:30:00+00:00,300.1732,9.9,12.89,47.84626,-54.09684
2019-10-23 05:40:00+00:00,304.6647,9.9,12.89,47.84626,-54.09684
2019-10-23 05:50:00+00:00,308.508,9.9,12.89,47.84626,-54.09684
2019-10-23 06:00:00+00:00,313.4613,9.9,12.81,47.84626,-54.09684
2019-10-23 06:10:00+00:00,315.8146,9.92,12.81,47.84626,-54.09684
2019-10-23 06:20:00+00:00,317.4066,9.97,12.89,47.84626,-54.09684
2019-10-23 06:30:00+00:00,314.4979,9.99,12.89,47.84626,-54.09684
2019-10-23 06:40:00+00:00,315.0281,9.9,12.89,47.84626,-54.09684
2019-10-23 06:50:00+00:00,312.5363,9.9,12.89,47.84626,-54.09684
2019-10-23 07:00:00+00:00,309.138,9.9,12.81,47.84626,-54.09684
2019-10-23 07:10:00+00:00,307.0381,9.9,12.81,47.84626,-54.09684
2019-10-23 07:20:00+00:00,308.0648,9.9,12.89,47.84626,-54.09684
2019-10-23 07:30:00+00:00,302.998,9.8,12.89,47.84626,-54.09684
2019-10-23 07:40:00+00:00,294.5897,9.78,12.89,47.84626,-54.09684
2019-10-23 07:50:00+00:00,291.4197,9.7,12.89,47.84626,-54.09684
2019-10-23 08:00:00+00:00,292.0997,9.7,12.81,47.84626,-54.09684
2019-10-23 08:10:00+00:00,287.3264,9.75,12.81,47.84626,-54.09684
2019-10-23 08:20:00+00:00,278.9014,9.75,12.89,47.84626,-54.09684
2019-10-23 08:30:00+00:00,274.3498,9.79,12.89,47.84626,-54.09684
2019-10-23 08:40:00+00:00,271.5747,9.7,12.89,47.84626,-54.09684
2019-10-23 08:50:00+00:00,267.4747,9.7,12.89,47.84626,-54.09684
2019-10-23 09:00:00+00:00,264.7996,9.7,12.81,47.84626,-54.09684
2019-10-23 09:10:00+00:00,262.5831,9.7,12.81,47.84626,-54.09684
2019-10-23 09:20:00+00:00,258.9131,9.7,12.89,47.84626,-54.09684
2019-10-23 09:30:00+00:00,255.4898,9.7,12.89,47.84626,-54.09684
2019-10-23 09:40:00+00:00,251.8731,9.7,12.89,47.84626,-54.09684
2019-10-23 09:50:00+00:00,244.8531,9.7,12.89,47.84626,-54.09684
2019-10-23 10:00:00+00:00,238.6147,9.7,12.81,47.84626,-54.09684
2019-10-23 10:10:00+00:00,237.5764,9.7,12.81,47.84626,-54.09684
2019-10-23 10:20:00+00:00,236.1981,9.7,12.89,47.84626,-54.09684
2019-10-23 10:30:00+00:00,231.5564,9.7,12.89,47.84626,-54.09684
2019-10-23 10:40:00+00:00,229.3365,9.7,12.97,47.84626,-54.09684
2019-10-23 10:50:00+00:00,229.3164,9.7,12.97,47.84626,-54.09684
2019-10-23 11:00:00+00:00,225.6447,9.7,12.97,47.84626,-54.09684
2019-10-23 11:10:00+00:00,220.3365,9.7,12.89,47.84626,-54.09684
2019-10-23 11:20:00+00:00,217.0548,9.7,12.97,47.84626,-54.09684
2019-10-23 11:30:00+00:00,213.7198,9.7,13.05,47.84626,-54.09684
2019-10-23 11:40:00+00:00,212.6998,9.7,13.13,47.84626,-54.09684
2019-10-23 11:50:00+00:00,214.6697,9.7,13.21,47.84626,-54.09684
2019-10-23 12:00:00+00:00,213.3765,9.7,13.13,47.84626,-54.09684
2019-10-23 12:10:00+00:00,211.3665,9.7,13.13,47.84626,-54.09684
2019-10-23 12:20:00+00:00,213.4065,9.7,13.21,47.84626,-54.09684
2019-10-23 12:30:00+00:00,211.5131,9.7,13.29,47.84626,-54.09684
2019-10-23 12:40:00+00:00,206.8981,9.7,13.37,47.84626,-54.09684
2019-10-23 12:50:00+00:00,208.3548,9.7,13.37,47.84626,-54.09684
2019-10-23 13:00:00+00:00,211.4298,9.7,13.37,47.84626,-54.09684
2019-10-23 13:10:00+00:00,206.5848,9.7,13.29,47.84626,-54.09684
2019-10-23 13:20:00+00:00,202.8598,9.7,13.44,47.84626,-54.09684
2019-10-23 13:30:00+00:00,207.8981,9.7,14.24,47.84626,-54.09684
2019-10-23 13:40:00+00:00,211.9215,9.7,13.68,47.84626,-54.09684
2019-10-23 13:50:00+00:00,212.6598,9.7,13.76,47.84626,-54.09684
2019-10-23 14:00:00+00:00,213.1631,9.7,13.68,47.84626,-54.09684
2019-10-23 14:10:00+00:00,216.8581,9.7,13.68,47.84626,-54.09684
2019-10-23 14:20:00+00:00,218.4698,9.7,16.55,47.84626,-54.09684
2019-10-23 14:30:00+00:00,214.3598,9.7,14.56,47.84626,-54.09684
2019-10-23 14:40:00+00:00,213.9581,9.73,14.32,47.84626,-54.09684
2019-10-23 14:50:00+00:00,221.4748,9.71,14.4,47.84626,-54.09684
2019-10-23 15:00:00+00:00,227.4798,9.7,14.48,47.84626,-54.09684
2019-10-23 15:10:00+00:00,230.3697,9.7,14.24,47.84626,-54.09684
2019-10-23 15:20:00+00:00,235.6364,9.7,16.31,47.84626,-54.09684
2019-10-23 15:30:00+00:00,242.3031,9.72,14.48,47.84626,-54.09684
2019-10-23 15:40:00+00:00,249.3814,9.74,14.48,47.84626,-54.09684
2019-10-23 15:50:00+00:00,255.9747,9.73,14.64,47.84626,-54.09684
2019-10-23 16:00:00+00:00,260.8631,9.76,15.27,47.84626,-54.09684
2019-10-23 16:10:00+00:00,264.1514,9.8,14.4,47.84626,-54.09684
2019-10-23 16:20:00+00:00,269.0064,9.8,14.48,47.84626,-54.09684
2019-10-23 16:30:00+00:00,275.5547,9.8,14.48,47.84626,-54.09684
2019-10-23 16:40:00+00:00,283.438,9.87,14.4,47.84626,-54.09684
2019-10-23 16:50:00+00:00,288.9814,9.9,14.32,47.84626,-54.09684
2019-10-23 17:00:00+00:00,292.0132,9.9,14.72,47.84626,-54.09684
2019-10-23 17:10:00+00:00,293.2014,9.9,14.24,47.84626,-54.09684
2019-10-23 17:20:00+00:00,297.7681,9.9,14.24,47.84626,-54.09684
2019-10-23 17:30:00+00:00,301.1964,9.96,14.32,47.84626,-54.09684
2019-10-23 17:40:00+00:00,303.9213,9.98,14.24,47.84626,-54.09684
2019-10-23 17:50:00+00:00,309.3713,9.99,14.16,47.84626,-54.09684
2019-10-23 18:00:00+00:00,317.4313,10.0,14.08,47.84626,-54.09684
2019-10-23 18:10:00+00:00,316.6995,10.0,13.92,47.84626,-54.09684
2019-10-23 18:20:00+00:00,316.0082,10.0,13.92,47.84626,-54.09684
2019-10-23 18:30:00+00:00,320.4581,10.0,13.92,47.84626,-54.09684
2019-10-23 18:40:00+00:00,324.1496,10.0,13.92,47.84626,-54.09684
2019-10-23 18:50:00+00:00,325.723,10.0,13.92,47.84626,-54.09684
2019-10-23 19:00:00+00:00,329.548,10.0,13.84,47.84626,-54.09684
2019-10-23 19:10:00+00:00,334.5962,10.0,13.76,47.84626,-54.09684
2019-10-23 19:20:00+00:00,333.108,10.0,13.76,47.84626,-54.09684
2019-10-23 19:30:00+00:00,329.6846,10.0,13.68,47.84626,-54.09684
2019-10-23 19:40:00+00:00,331.6647,10.0,13.68,47.84626,-54.09684
2019-10-23 19:50:00+00:00,334.3446,10.0,13.68,47.84626,-54.09684
2019-10-23 20:00:00+00:00,329.4695,10.02,13.53,47.84626,-54.09684
2019-10-23 20:10:00+00:00,326.0764,10.08,13.37,47.84626,-54.09684
2019-10-23 20:20:00+00:00,327.4813,10.1,13.37,47.84626,-54.09684
2019-10-23 20:30:00+00:00,325.7846,10.1,13.29,47.84626,-54.09684
2019-10-23 20:40:00+00:00,318.733,10.1,13.29,47.84626,-54.09684
2019-10-23 20:50:00+00:00,316.2147,10.09,13.29,47.84626,-54.09684
2019-10-23 21:00:00+00:00,315.1429,10.1,13.21,47.84626,-54.09684
2019-10-23 21:10:00+00:00,308.0613,10.1,13.05,47.84626,-54.09684
2019-10-23 21:20:00+00:00,302.6763,10.1,13.05,47.84626,-54.09684
2019-10-23 21:30:00+00:00,304.0013,10.0,13.05,47.84626,-54.09684
2019-10-23 21:40:00+00:00,300.4446,9.92,13.05,47.84626,-54.09684
2019-10-23 21:50:00+00:00,293.0847,9.9,13.05,47.84626,-54.09684
2019-10-23 22:00:00+00:00,285.498,9.99,12.97,47.84626,-54.09684
2019-10-23 22:10:00+00:00,281.6731,10.0,12.89,47.84626,-54.09684
2019-10-23 22:20:00+00:00,276.4064,10.09,12.97,47.84626,-54.09684
2019-10-23 22:30:00+00:00,270.9347,10.1,12.97,47.84626,-54.09684
2019-10-23 22:40:00+00:00,267.3948,10.1,12.97,47.84626,-54.09684
2019-10-23 22:50:00+00:00,265.2048,10.09,13.05,47.84626,-54.09684
2019-10-23 23:00:00+00:00,259.6814,10.03,12.97,47.84626,-54.09684
2019-10-23 23:10:00+00:00,250.8948,10.0,12.89,47.84626,-54.09684
2019-10-23 23:20:00+00:00,242.6031,10.0,12.97,47.84626,-54.09684
2019-10-23 23:30:00+00:00,238.1031,10.0,12.97,47.84626,-54.09684
2019-10-23 23:40:00+00:00,234.0264,10.0,12.97,47.84626,-54.09684
2019-10-23 23:50:00+00:00,230.2998,10.0,12.97,47.84626,-54.09684
